Probability
3 4 4 3 3 4 7 8 7 6 4 1 0 0 0 0 0 0 0 1 2 4 6 6 4 1 0 1 2 4 6 6 5 4 3 2 1 0 0 0 0 0 0
3 3 3 2 2 3 4 6 6 5 4 2 1 0 0 0 0 0 0 0 1 3 5 6 4 2 0 1 2 4 6 6 4 4 4 2 0 0 0 0 0 0 0
3 3 1 0 1 2 2 3 5 4 3 2 1 0 0 0 0 0 0 0 0 1 3 5 6 4 2 2 2 4 6 6 4 4 4 2 1 0 0 0 0 0 0
3 2 1 0 0 0 0 1 2 3 3 2 1 0 0 0 0 0 0 0 0 0 1 3 5 6 5 3 3 5 7 6 4 4 4 3 1 0 0 0 0 0 0
1 2 2 1 0 0 0 0 1 1 3 2 1 0 0 0 0 0 0 0 0 0 0 1 2 5 5 4 4 5 6 6 5 4 3 3 2 0 0 0 0 0 0
0 1 2 1 0 0 0 0 0 1 2 2 1 0 0 0 0 0 0 1 1 0 0 0 1 2 3 3 5 5 5 6 5 4 3 3 1 0 0 0 0 0 0
0 1 2 2 1 0 0 0 0 0 1 1 1 0 0 0 0 0 1 2 2 1 1 0 0 1 1 1 3 4 5 6 4 3 3 2 1 0 0 0 0 0 0
0 0 1 2 2 1 0 0 0 0 0 0 0 0 0 1 1 1 2 4 3 3 2 1 0 0 0 0 1 3 4 5 4 3 3 2 1 0 0 0 0 0 0
0 0 0 1 1 1 0 0 0 0 0 0 0 0 0 1 1 2 3 4 3 3 3 2 1 0 0 0 0 1 2 3 3 3 3 2 1 0 0 0 0 0 0
0 0 0 0 0 0 0 0 0 0 0 0 0 0 0 1 1 2 3 3 3 3 3 3 1 0 0 0 0 0 0 1 2 3 3 2 1 0 0 0 0 0 0
0 0 0 0 0 0 0 0 0 0 0 0 0 0 0 0 0 1 2 2 3 3 3 3 2 1 0 0 0 0 0 0 1 1 2 2 1 0 0 0 0 0 0
0 0 0 0 0 0 0 0 0 0 0 0 0 0 0 0 0 0 1 1 1 3 3 3 2 1 0 0 0 0 0 0 0 0 1 1 0 0 0 0 0 0 0
0 0 1 0 0 0 0 0 0 0 0 0 0 0 0 0 0 0 0 0 1 2 3 3 2 1 0 0 0 0 0 0 0 0 0 0 0 0 0 0 0 0 0
0 0 1 1 0 0 0 0 0 0 0 0 0 0 0 0 0 0 0 0 0 1 3 3 2 1 0 0 0 0 0 0 0 0 0 0 0 0 0 0 0 0 0
0 0 0 1 1 0 0 0 0 0 0 0 0 0 0 0 0 0 0 0 0 0 1 1 1 0 0 0 0 0 0 0 0 0 0 0 0 0 0 0 0 0 0
0 0 0 1 2 1 0 0 0 0 0 0 0 0 0 0 0 0 0 0 0 0 0 0 0 0 0 0 0 0 0 0 0 0 0 0 0 0 0 0 0 0 0
0 0 0 1 2 2 1 0 0 0 0 0 0 0 0 0 0 0 0 0 0 0 0 0 1 2 1 0 0 0 0 0 0 0 0 0 0 0 0 0 0 0 0
0 0 0 0 1 2 2 0 0 0 0 0 0 0 0 0 0 0 0 0 0 0 0 1 2 3 2 0 0 0 0 0 0 0 0 0 0 0 0 0 0 0 0
0 0 0 0 1 1 1 0 0 0 0 0 0 0 0 0 0 0 0 0 0 0 0 1 2 3 1 0 0 0 0 0 0 0 0 0 0 0 0 0 0 0 0
0 0 0 0 0 0 0 0 0 0 0 0 0 0 0 0 0 0 0 0 0 0 0 1 2 2 1 0 0 0 0 0 0 0 0 0 0 0 0 0 0 0 0
0 0 0 0 0 0 0 0 0 0 0 0 0 0 0 0 0 0 0 0 0 0 0 0 1 1 1 0 0 0 0 0 0 0 0 0 0 0 0 0 0 0 0
0 0 0 0 0 0 0 0 0 0 0 0 0 0 0 0 0 0 0 0 0 0 0 0 0 0 0 0 0 0 0 0 0 0 0 0 0 0 0 0 0 0 0
0 0 0 0 0 0 0 0 0 0 0 0 0 0 0 0 0 0 0 0 0 0 0 0 0 0 0 0 0 0 0 0 0 0 0 0 0 0 0 0 0 0 0
0 0 0 0 0 0 0 0 0 0 0 0 0 0 0 0 0 0 0 0 0 0 0 0 0 0 0 0 0 0 0 0 0 0 0 0 0 0 0 0 0 0 0
0 0 0 0 0 0 0 0 0 0 0 0 0 0 0 0 0 0 0 0 0 0 0 0 0 0 0 0 0 0 0 0 0 0 0 0 0 0 0 0 0 0 0
0 0 0 0 0 0 0 0 0 0 0 0 0 0 0 0 0 0 0 0 0 0 0 0 0 0 0 0 0 0 0 0 0 0 0 0 0 0 0 0 0 0 0
Wind_Speed
3 2 2 2 2 2 3 3 3 3 2 2 2 2 2 1 1 0 1 1 1 2 2 2 2 1 1 1 1 1 1 2 2 3 3 4 4 5 5 6 6 7 7
3 2 2 2 2 2 2 3 3 3 2 2 1 1 2 1 1 0 0 1 2 1 2 2 2 2 2 1 1 1 1 2 2 3 3 4 5 5 5 6 7 7 8
4 3 2 1 1 2 2 2 2 2 2 2 1 1 1 1 1 1 1 1 1 2 2 2 1 2 2 1 2 1 1 2 3 3 4 4 5 5 6 7 7 8 8
4 4 2 2 1 2 2 2 2 2 2 2 1 1 1 1 1 1 1 1 1 1 2 2 2 2 2 2 2 2 2 2 3 3 4 4 5 6 6 7 7 8 9
3 4 3 2 2 2 2 2 2 2 3 2 1 0 1 1 1 1 2 1 1 1 1 2 2 2 3 3 3 3 3 3 3 4 4 4 5 6 7 7 8 8 9
2 3 3 3 3 2 2 2 1 1 2 2 1 0 1 1 1 2 2 2 2 2 1 1 1 2 3 4 4 3 3 4 4 4 4 5 6 7 7 8 8 9 10
2 3 3 3 3 3 3 4 2 2 1 2 2 0 1 1 2 2 2 2 2 2 2 2 1 1 1 4 4 4 4 4 5 5 5 5 6 7 8 8 9 9 10
2 2 3 3 3 3 4 4 3 2 1 2 3 2 1 1 1 2 2 2 2 2 2 2 2 1 1 1 3 4 4 5 5 5 5 6 7 7 8 8 9 9 10
2 2 3 3 3 4 4 4 5 4 3 2 2 3 3 3 1 1 2 2 2 2 2 2 2 2 2 1 2 3 4 5 5 5 6 6 7 8 8 9 9 10 10
2 2 3 3 3 3 4 4 4 3 4 3 2 1 2 2 2 1 1 1 2 3 3 2 2 2 2 2 2 3 3 4 4 5 6 7 7 8 9 9 10 10 11
2 2 3 3 3 2 4 4 3 3 3 4 4 3 2 1 1 2 3 2 1 2 3 3 2 2 2 2 2 2 3 3 4 5 6 7 8 8 9 10 10 11 11
1 3 3 3 3 3 4 4 4 4 4 4 3 3 4 3 3 3 3 3 2 2 2 2 2 2 2 2 2 2 3 4 4 5 6 7 8 8 9 10 10 11 11
2 3 3 3 3 3 4 3 4 4 4 4 4 3 3 3 3 3 2 2 2 2 1 1 2 2 2 2 2 3 3 4 4 5 6 7 7 8 9 9 10 11 11
3 3 3 3 3 3 3 3 3 4 3 4 4 3 3 2 3 3 3 3 2 1 1 2 1 2 2 2 3 3 2 4 4 4 5 6 7 8 8 8 9 10 11
2 2 2 2 3 3 3 3 3 3 3 4 4 4 3 3 2 2 3 3 3 2 3 2 1 2 2 2 2 2 2 3 4 4 5 6 6 7 7 8 9 9 10
2 2 2 2 3 3 3 3 3 3 4 3 3 4 4 3 2 2 3 3 2 3 2 1 1 1 1 1 2 2 2 3 4 4 5 6 6 6 7 7 8 9 10
1 2 2 2 3 3 3 3 3 4 4 4 3 4 4 3 3 3 3 2 2 2 3 2 1 1 1 1 1 1 1 1 2 4 5 6 6 6 6 7 8 9 10
1 2 2 2 2 2 3 3 4 3 4 4 4 4 4 3 4 3 3 3 2 2 3 2 1 1 2 2 2 1 1 1 2 4 5 6 6 5 6 7 8 8 9
1 1 1 1 2 2 2 3 4 3 4 4 4 4 4 4 4 3 3 3 2 2 2 2 2 1 1 1 1 1 1 1 2 3 4 5 5 5 6 7 7 8 9
1 1 1 2 2 2 2 2 2 3 3 3 3 4 4 5 5 4 3 3 3 2 2 2 2 1 1 1 1 1 1 1 2 2 3 4 4 6 6 7 7 8 9
2 2 1 2 2 2 2 1 1 2 3 3 2 3 4 4 5 4 3 3 4 3 2 2 2 1 1 1 1 1 1 2 2 1 1 2 3 2 3 5 6 7 8
2 2 2 2 2 2 3 2 1 1 2 3 3 2 2 3 4 4 4 4 5 4 4 3 2 3 3 2 1 1 1 1 2 1 1 3 2 2 3 2 5 8 8
2 2 2 2 2 3 3 2 1 1 2 3 3 2 2 2 2 2 2 2 3 5 5 4 3 3 3 3 3 2 2 2 3 2 1 3 2 3 3 4 7 7 7
2 2 2 2 2 3 3 2 1 1 1 2 3 3 3 2 2 3 2 1 1 2 3 3 3 3 3 3 4 3 2 1 1 1 1 2 2 2 3 3 6 7 8
2 2 2 2 2 3 4 2 1 0 1 1 1 2 3 3 4 4 3 3 1 1 1 1 2 2 2 2 2 2 1 1 2 2 1 1 1 2 3 3 4 7 7
2 2 2 2 2 2 3 3 2 0 1 1 1 1 2 3 4 4 4 4 3 1 1 1 1 2 1 1 1 2 3 2 1 1 1 1 1 2 3 2 2 3 4
Wind_Direction
152 144 142 145 138 141 145 142 137 134 132 131 135 142 145 143 137 339 318 357 238 235 218 214 223 248 265 278 325 5 353 350 356 358 357 350 350 346 343 340 338 337 334
155 147 147 149 148 156 158 154 156 150 147 145 144 161 167 170 163 192 295 310 307 280 249 240 235 249 269 261 291 293 326 333 337 344 350 349 343 335 333 333 331 330 328
154 151 151 152 158 151 150 148 145 142 142 141 147 167 173 171 165 188 247 259 284 308 302 282 275 276 285 284 279 266 305 327 329 332 335 336 335 333 332 327 326 323 324
153 148 151 164 158 140 147 164 164 153 152 155 163 200 188 176 189 208 214 239 241 277 310 324 312 301 299 290 283 275 305 318 322 329 332 332 331 331 330 329 327 325 325
154 149 157 167 159 154 160 173 182 170 165 163 170 186 209 194 210 214 216 231 233 220 242 317 327 324 318 304 291 287 301 312 313 320 325 329 330 328 326 327 327 327 325
162 158 165 170 167 167 170 157 180 159 167 166 161 174 290 242 215 214 221 227 239 217 206 229 282 313 322 311 306 299 304 309 309 313 321 325 325 322 323 322 323 324 324
170 182 174 167 172 182 183 173 168 149 175 159 133 4 312 261 228 229 220 213 235 225 201 207 220 242 295 310 311 304 306 310 309 312 320 321 319 318 319 320 322 323 325
172 192 184 182 182 177 179 183 168 155 219 186 158 159 263 293 259 231 217 207 222 222 210 211 213 224 254 270 301 306 307 307 308 313 317 317 317 315 316 319 321 322 325
190 203 185 185 191 187 192 192 181 176 189 223 195 173 174 216 248 262 225 206 209 219 218 216 212 219 235 244 254 282 306 306 305 310 315 317 317 317 319 319 321 323 326
201 200 187 184 199 200 196 201 193 192 182 203 218 210 200 173 172 257 266 224 217 222 218 222 218 219 226 226 248 277 297 308 315 315 319 319 319 319 320 321 323 324 325
208 213 194 190 200 206 207 198 194 197 199 201 204 188 185 202 198 190 240 247 249 233 218 215 213 216 220 218 217 243 288 306 311 316 316 316 316 317 319 322 322 322 323
232 223 215 203 206 207 214 203 198 197 205 204 211 198 184 180 189 194 215 235 243 256 237 225 211 212 207 202 228 268 284 302 310 313 315 314 315 317 319 321 321 323 324
245 232 221 215 213 210 215 207 198 202 204 202 208 216 204 201 181 186 190 219 245 267 278 248 216 208 206 198 224 267 277 295 305 312 316 317 318 318 318 319 323 326 326
238 236 225 219 218 212 215 208 203 206 203 205 208 205 199 207 194 190 183 181 215 264 256 251 232 219 206 201 238 262 254 283 298 312 317 318 317 318 316 319 324 326 325
243 240 232 223 218 213 212 209 210 209 201 207 208 206 203 204 197 197 191 192 184 208 244 234 228 226 212 204 247 234 235 270 296 305 309 311 312 314 316 320 321 322 323
250 240 237 233 233 222 211 210 214 212 205 210 207 206 210 203 190 195 199 205 201 194 228 237 240 259 254 269 257 234 244 287 299 302 304 310 312 312 313 317 320 322 322
252 247 239 235 237 232 221 215 226 211 208 210 207 204 217 202 194 199 189 189 200 189 212 262 261 262 252 249 266 253 247 245 272 303 304 309 310 307 308 318 321 321 321
270 260 254 254 254 242 224 218 231 219 214 214 210 205 216 204 198 196 187 187 197 207 194 217 254 246 251 243 246 263 285 287 267 294 303 313 316 313 312 316 320 325 328
292 290 295 279 273 266 248 234 228 218 217 222 215 209 212 201 205 199 194 190 193 207 196 184 226 248 260 244 251 288 287 286 292 298 305 313 320 321 321 324 329 330 330
302 308 301 278 271 274 267 251 217 216 212 216 214 211 211 203 199 195 196 191 185 187 184 181 205 235 250 241 180 260 310 309 312 317 311 314 319 327 328 331 329 329 328
316 312 307 297 286 275 270 260 217 218 207 211 214 219 219 213 209 202 196 186 181 186 191 200 206 219 240 221 232 234 286 322 313 296 314 314 316 318 320 318 321 323 323
334 332 322 310 297 294 302 297 276 231 218 209 213 217 222 211 212 211 209 203 195 193 201 207 218 223 234 226 217 230 264 318 300 293 325 307 308 298 299 292 305 314 317
343 334 325 320 303 297 313 320 299 246 225 216 208 203 218 216 206 195 204 218 226 228 220 212 212 229 226 213 202 219 229 254 268 267 303 290 296 288 292 296 306 311 318
336 322 317 311 309 320 330 324 309 291 256 224 210 201 204 208 204 185 172 186 244 251 248 231 220 225 233 214 201 204 206 245 298 277 240 272 287 292 302 297 303 312 321
334 326 323 322 325 329 339 335 338 321 287 252 227 214 208 202 202 183 168 184 226 272 316 278 277 265 253 246 192 147 162 190 293 277 231 232 276 309 298 289 303 319 325
329 327 333 338 327 317 341 350 350 323 293 259 218 238 235 220 205 193 179 179 199 223 155 63 18 9 358 277 244 193 184 196 246 261 226 208 272 325 312 293 304 315 321